Find Local Weather

World > North America > United States > Kansas

Leavenworth, Kansas Regional Weather

Lat: 39.31N, Lon: 94.92W
Wx Zone: KSZ103
Feedback
Expires:201810192200;;436714
ASUS43 KEAX 192110
RWREAX

WEATHER ROUNDUP FOR EASTERN KANSAS AND NORTHWEST MISSOURI
NATIONAL WEATHER SERVICE KANSAS CITY/PLEASANT HILL MO
400 PM CDT FRI OCT 19 2018


KSZ040-057-103>105-MOZ028-029-037-043-192200-
...KANSAS CITY METROPOLITAN AREA...
  
CITY           SKY/WX    TMP DP  RH WIND       PRES   REMARKS
K.C. INTL      CLOUDY    62  52  69 W9        30.02F                  
K.C. DOWNTOWN  CLOUDY    61  52  72 SW13      30.03S                  
LEES SUMMIT    CLOUDY    59  54  83 W14       30.04F                  
OLATHE - IXD   CLOUDY    59  53  80 SW13      30.05F                  
OLATHE - OJC   CLOUDY    58  53  84 W10G18    30.04F                  
LAWRENCE       CLOUDY    65  54  67 SW13      30.04S                  

$$
 

SKY/WX - Weather  TMP - Temperature  DP - Dew Point  RH - Relative Humidity
WIND - Wind Direction/Speed PRES - Barometric Pressure